Location: �clusier
(49.9361°N, 2.7869°E)
Time: 22:43:18
(UTC+00:00)

GEOS 3 Rocket - Pass Details

Date: 16 June 2021
Orbit: 780 x 839 km, 115.0° (Epoch: 02 August)

Event Time Altitude Azimuth Distance (km) Brightness Sun altitude
Exits shadow 22:36:02 22° 156° (SSE) 1,741 4.7 -14.9°
Maximum altitude 22:39:28 64° 232° (SW) 928 3.8 -15.0°
Drops below altitude 10° 22:44:47 10° 314° (NW) 2,452 7.0 -15.3°
Sets 22:47:07 0° 317° (NW) 3,384 8.0 -15.4°
